Home > Time Zones > World Clock > Weather > Iran > Tehran > Past weeks

Flag for Iran Weather past 2 weeks in Tehran, Iran

Now
75 °F

Clear.


Feels Like: 76 °F
Forecast: 66 / 87 °F
Wind: 7 mph from Northwest

Location: Tehran-Mehrabad

Current Time: Oct 2, 2014 at 12:43:32 AM

Latest Report: Oct 2, 2014 at 12:00 AM


Visibility: 10 mi

Pressure: 30.04 "Hg

Humidity: 22%

Dew point: 34 °F

Location of TehranLocation

Historic Weather in Tehran — Graph

°F

Tehran temperature yesterday

Maximum temperature yesterday: 90 °F (at 2:30 PM)
Minimum temperature yesterday: 70 °F (at 6:00 AM)
Average temperature yesterday: 81 °F

Past Weeks' High & Low Weather Summary

 TemperatureHumidityPressure
High91 °F (Sep 17, 4:30 PM)59% (Sep 27, 2:30 AM)30.18 "Hg (Sep 27, 2:30 AM)
Low63 °F (Sep 27, 2:30 AM)7% (Sep 22, 4:30 PM)29.83 "Hg (Sep 17, 12:30 AM)
Average80 °F21%29.96 "Hg
* Reported Sep 17 12:30 AM — Oct 1 11:30 PM, Tehran, Weather by CustomWeather, © 2014

Note: Actual official high and low records may vary slightly from our data, if they occured in-between our weather recording intervals... More about our weather records

Advertising

Tehran weather history for previous 24 hours

 ConditionsComfort  
Time TempWeatherWind HumidityBarometerVisibility
11:30 PM
Oct 1
75 °FClear.7 mph22%30.04 "Hg10 mi
11:00 PM77 °FClear.12 mph19%30.04 "Hg5 mi
10:30 PM77 °FClear.12 mph19%30.04 "Hg5 mi
10:00 PM79 °FClear.9 mph18%30.04 "Hg10 mi
9:30 PM79 °FClear.9 mph18%30.04 "Hg10 mi
9:00 PM79 °FClear.7 mph18%30.04 "Hg10 mi
8:30 PM81 °FPassing clouds.5 mph16%30.04 "HgN/A
8:00 PM82 °FPassing clouds.9 mph14%30.01 "HgN/A
7:30 PM82 °FPassing clouds.7 mph14%30.01 "HgN/A
7:00 PM82 °FPassing clouds.5 mph13%30.01 "HgN/A
6:30 PM84 °FPassing clouds.7 mph12%30.01 "HgN/A
6:00 PM86 °FPassing clouds.7 mph11%29.98 "HgN/A
5:30 PM88 °FPassing clouds.7 mph10%29.98 "HgN/A
5:00 PM88 °FPassing clouds.14 mph10%29.98 "HgN/A
4:30 PM90 °FPassing clouds.14 mph11%29.98 "HgN/A
4:00 PM90 °FPassing clouds.9 mph9%29.98 "HgN/A
3:30 PM90 °FPassing clouds.12 mph10%30.01 "HgN/A
3:00 PM90 °FPassing clouds.9 mph9%30.01 "HgN/A
2:30 PM90 °FPassing clouds.9 mph11%30.01 "HgN/A
2:00 PM88 °FSunny.7 mph11%30.01 "Hg10 mi
1:30 PM88 °FSunny.12 mph12%30.01 "Hg10 mi
1:00 PM88 °FSunny.14 mph12%30.04 "Hg10 mi
12:30 PM88 °FSunny.9 mph13%30.04 "Hg5 mi
12:00 PM88 °FSunny.9 mph13%30.07 "Hg5 mi
11:30 AM84 °FSunny.7 mph14%30.07 "Hg5 mi
11:00 AM84 °FSunny.9 mph15%30.09 "Hg5 mi
10:30 AM84 °FSunny.7 mph19%30.09 "Hg5 mi
10:00 AM82 °FSunny.7 mph17%30.09 "Hg5 mi
9:30 AM81 °FSunny.7 mph18%30.09 "Hg5 mi
9:00 AM81 °FSunny.7 mph18%30.09 "Hg5 mi
8:30 AM79 °FPassing clouds.5 mph21%30.09 "Hg5 mi
8:00 AM81 °FPassing clouds.No wind17%30.07 "Hg5 mi
7:30 AM77 °FPassing clouds.No wind19%30.07 "HgN/A
7:00 AM73 °FPassing clouds.No wind29%30.07 "HgN/A
6:30 AM70 °FPassing clouds.5 mph31%30.07 "HgN/A
6:00 AM70 °FClear.5 mph29%30.04 "Hg10 mi
5:30 AM72 °FClear.No wind25%30.07 "Hg10 mi
5:00 AM72 °FClear.5 mph22%30.04 "Hg10 mi
4:30 AM73 °FClear.5 mph20%30.04 "Hg10 mi
4:00 AM72 °FClear.5 mph22%30.04 "Hg10 mi
3:30 AM72 °FClear.5 mph27%30.04 "Hg10 mi
3:00 AM73 °FClear.No wind25%30.04 "Hg10 mi
2:30 AM75 °FClear.No wind22%30.04 "Hg10 mi
2:00 AM75 °FClear.No wind18%30.04 "Hg10 mi
1:30 AM77 °FClear.7 mph18%30.04 "Hg10 mi
1:00 AM77 °FClear.No wind18%30.04 "Hg10 mi
12:00 AM79 °FClear.7 mph17%30.07 "Hg10 mi
Weather by CustomWeather, © 2014

See weather overviewHow to use our weather pages